| time (UTC) | temp F | wind direction | speed MPH | gust MPH | rain 1hr in | rain 24hr in | rain mn in | humidity % | barometer mb |
| 20260505065842 | 63 | 175 | 0.0 | 1.0 | 0.00 | 0.00 | 0.00 | 79 | 1000.6 |
| 20260505065339 | 63 | 116 | 0.0 | 3.0 | 0.00 | 0.00 | 0.00 | 78 | 1000.5 |
| 20260505064836 | 63 | 103 | 0.0 | 1.0 | 0.00 | 0.00 | 0.00 | 78 | 1000.4 |
| 20260505064333 | 63 | 100 | 1.0 | 1.0 | 0.00 | 0.00 | 0.00 | 78 | 1000.6 |
| 20260505063831 | 63 | 150 | 1.0 | 3.0 | 0.00 | 0.00 | 0.00 | 78 | 1000.7 |
| 20260505063327 | 63 | 74 | 0.0 | 1.0 | 0.00 | 0.00 | 0.00 | 78 | 1000.2 |
| 20260505062824 | 63 | 81 | 0.0 | 1.0 | 0.00 | 0.00 | 0.00 | 78 | 1000.5 |
| 20260505062321 | 63 | 153 | 3.0 | 3.0 | 0.00 | 0.00 | 0.00 | 78 | 1000.6 |
| 20260505061818 | 63 | 337 | 1.0 | 2.0 | 0.00 | 0.00 | 0.00 | 78 | 1000.5 |
| 20260505061316 | 63 | 115 | 1.0 | 2.0 | 0.00 | 0.00 | 0.00 | 78 | 1000.4 |
| 20260505060813 | 63 | 189 | 1.0 | 2.0 | 0.00 | 0.00 | 0.00 | 78 | 1000.7 |
| 20260505060310 | 63 | 138 | 0.0 | 2.0 | 0.00 | 0.00 | 0.00 | 78 | 1000.7 |
| 20260505055805 | 63 | 95 | 0.0 | 2.0 | 0.00 | 0.00 | 0.00 | 78 | 1000.8 |
| 20260505055303 | 63 | 249 | 1.0 | 2.0 | 0.00 | 0.00 | 0.00 | 78 | 1000.8 |
| 20260505054759 | 63 | 117 | 1.0 | 2.0 | 0.00 | 0.00 | 0.00 | 79 | 1000.7 |
| 20260505054257 | 62 | 115 | 1.0 | 1.0 | 0.00 | 0.00 | 0.00 | 80 | 1001.3 |
| 20260505053755 | 62 | 102 | 0.0 | 2.0 | 0.00 | 0.00 | 0.00 | 81 | 1001.2 |
| 20260505053251 | 62 | 94 | 0.0 | 2.0 | 0.00 | 0.00 | 0.00 | 81 | 1001.3 |
| 20260505052748 | 62 | 99 | 0.0 | 0.0 | 0.00 | 0.00 | 0.00 | 81 | 1000.9 |
| 20260505052245 | 62 | 97 | 0.0 | 1.0 | 0.00 | 0.00 | 0.00 | 82 | 1001.1 |
| 20260505051742 | 62 | 91 | 0.0 | 2.0 | 0.00 | 0.00 | 0.00 | 81 | 1001.1 |
| 20260505051240 | 62 | 101 | 0.0 | 1.0 | 0.00 | 0.00 | 0.00 | 80 | 1001.2 |
| 20260505050738 | 62 | 94 | 0.0 | 1.0 | 0.00 | 0.00 | 0.00 | 82 | 1001.3 |
| 20260505050236 | 62 | 97 | 0.0 | 2.0 | 0.00 | 0.00 | 0.00 | 81 | 1001.4 |
| 20260505041706 | 62 | 100 | 0.0 | 1.0 | 0.00 | 0.00 | 0.00 | 82 | 1002.0 |
| 20260505041203 | 62 | 101 | 0.0 | 0.0 | 0.00 | 0.00 | 0.00 | 82 | 1002.1 |
| 20260505040700 | 62 | 85 | 0.0 | 0.0 | 0.00 | 0.00 | 0.00 | 82 | 1002.1 |
| 20260505040157 | 63 | 87 | 0.0 | 0.0 | 0.00 | 0.00 | 0.00 | 81 | 1002.1 |
| 20260505035654 | 63 | 87 | 0.0 | 0.0 | 0.00 | 0.00 | 0.00 | 80 | 1001.9 |
| 20260505035150 | 64 | 55 | 0.0 | 1.0 | 0.00 | 0.00 | 0.00 | 77 | 1002.2 |
| 20260505034647 | 64 | 79 | 0.0 | 0.0 | 0.00 | 0.00 | 0.00 | 75 | 1002.3 |
| 20260505034144 | 64 | 108 | 0.0 | 1.0 | 0.00 | 0.00 | 0.00 | 76 | 1002.2 |
| 20260505033640 | 64 | 95 | 0.0 | 0.0 | 0.00 | 0.00 | 0.00 | 75 | 1002.2 |
| 20260505033139 | 64 | 102 | 0.0 | 1.0 | 0.00 | 0.00 | 0.00 | 74 | 1002.3 |
| 20260505032637 | 64 | 112 | 1.0 | 2.0 | 0.00 | 0.00 | 0.00 | 76 | 1002.3 |
| 20260505032132 | 64 | 108 | 0.0 | 2.0 | 0.00 | 0.00 | 0.00 | 76 | 1002.4 |
| 20260505031630 | 64 | 101 | 0.0 | 1.0 | 0.00 | 0.00 | 0.00 | 76 | 1002.0 |
| 20260505031126 | 64 | 102 | 0.0 | 1.0 | 0.00 | 0.00 | 0.00 | 77 | 1002.3 |
| 20260505030623 | 64 | 88 | 0.0 | 1.0 | 0.00 | 0.00 | 0.00 | 75 | 1002.1 |
| 20260505030119 | 64 | 107 | 0.0 | 1.0 | 0.00 | 0.00 | 0.00 | 76 | 1001.9 |
| 20260505025615 | 64 | 95 | 0.0 | 1.0 | 0.00 | 0.00 | 0.00 | 77 | 1002.0 |
| 20260505025114 | 64 | 62 | 0.0 | 1.0 | 0.00 | 0.00 | 0.00 | 76 | 1001.8 |
| 20260505024611 | 65 | 91 | 0.0 | 0.0 | 0.00 | 0.00 | 0.00 | 76 | 1001.9 |
| 20260505024108 | 65 | 101 | 0.0 | 0.0 | 0.00 | 0.00 | 0.00 | 74 | 1001.7 |
| 20260505023605 | 65 | 54 | 1.0 | 2.0 | 0.00 | 0.00 | 0.00 | 72 | 1001.8 |
| 20260505023103 | 65 | 90 | 0.0 | 1.0 | 0.00 | 0.00 | 0.00 | 74 | 1001.7 |
| 20260505022600 | 65 | 98 | 0.0 | 1.0 | 0.00 | 0.00 | 0.00 | 74 | 1001.5 |
| 20260505022057 | 64 | 55 | 0.0 | 2.0 | 0.00 | 0.00 | 0.00 | 74 | 1001.5 |
| 20260505021553 | 64 | 77 | 0.0 | 0.0 | 0.00 | 0.00 | 0.00 | 77 | 1001.7 |
| 20260505021050 | 65 | 86 | 0.0 | 0.0 | 0.00 | 0.00 | 0.00 | 77 | 1001.3 |
| 20260505020550 | 65 | 82 | 0.0 | 0.0 | 0.00 | 0.00 | 0.00 | 76 | 1001.3 |
| 20260505020047 | 66 | 91 | 0.0 | 0.0 | 0.00 | 0.00 | 0.00 | 73 | 1001.3 |
| 20260505015544 | 66 | 69 | 0.0 | 0.0 | 0.00 | 0.00 | 0.00 | 73 | 1001.3 |
| 20260505015041 | 66 | 78 | 0.0 | 0.0 | 0.00 | 0.00 | 0.00 | 71 | 1001.2 |
| 20260505014538 | 66 | 100 | 0.0 | 0.0 | 0.00 | 0.00 | 0.00 | 72 | 1001.2 |
| 20260505014035 | 66 | 104 | 0.0 | 0.0 | 0.00 | 0.00 | 0.00 | 73 | 1001.1 |
| 20260505013532 | 66 | 94 | 0.0 | 0.0 | 0.00 | 0.00 | 0.00 | 73 | 1001.0 |
| 20260505013029 | 68 | 101 | 0.0 | 0.0 | 0.00 | 0.00 | 0.00 | 71 | 1000.9 |
| 20260505012527 | 68 | 102 | 0.0 | 1.0 | 0.00 | 0.00 | 0.00 | 70 | 1001.1 |
| 20260505012024 | 68 | 90 | 0.0 | 0.0 | 0.00 | 0.00 | 0.00 | 69 | 1000.6 |
| 20260505011519 | 68 | 69 | 0.0 | 0.0 | 0.00 | 0.00 | 0.00 | 67 | 1000.7 |
| 20260505011017 | 68 | 66 | 0.0 | 1.0 | 0.00 | 0.00 | 0.00 | 66 | 1000.7 |
| 20260505010512 | 69 | 101 | 0.0 | 0.0 | 0.00 | 0.00 | 0.00 | 66 | 1000.6 |
| 20260505010009 | 70 | 101 | 0.0 | 0.0 | 0.00 | 0.00 | 0.00 | 69 | 1000.6 |
| 20260505005506 | 70 | 107 | 0.0 | 0.0 | 0.00 | 0.00 | 0.00 | 64 | 1000.7 |
| 20260505005004 | 70 | 100 | 0.0 | 0.0 | 0.00 | 0.00 | 0.00 | 64 | 1000.5 |
| 20260505004500 | 71 | 93 | 0.0 | 0.0 | 0.00 | 0.00 | 0.00 | 64 | 1000.4 |
| 20260505003956 | 71 | 84 | 0.0 | 0.0 | 0.00 | 0.00 | 0.00 | 62 | 1000.6 |
| 20260505003454 | 72 | 100 | 1.0 | 1.0 | 0.00 | 0.00 | 0.00 | 61 | 1000.3 |
| 20260505002950 | 72 | 111 | 0.0 | 2.0 | 0.00 | 0.00 | 0.00 | 60 | 1000.6 |
| 20260505002446 | 73 | 98 | 0.0 | 1.0 | 0.00 | 0.00 | 0.00 | 59 | 1000.6 |
| 20260505001945 | 73 | 193 | 2.0 | 5.0 | 0.00 | 0.00 | 0.00 | 55 | 1000.7 |
| 20260505001442 | 73 | 116 | 0.0 | 0.0 | 0.00 | 0.00 | 0.00 | 56 | 1000.5 |
| 20260505000939 | 74 | 160 | 1.0 | 2.0 | 0.00 | 0.00 | 0.00 | 56 | 1000.8 |
| 20260505000437 | 74 | 103 | 0.0 | 0.0 | 0.00 | 0.00 | 0.00 | 55 | 1000.5 |
| 20260504235933 | 75 | 91 | 1.0 | 3.0 | 0.00 | 0.00 | 0.00 | 55 | 1000.5 |
| 20260504235431 | 75 | 153 | 0.0 | 1.0 | 0.00 | 0.00 | 0.00 | 54 | 1000.8 |
| 20260504234926 | 75 | 95 | 0.0 | 2.0 | 0.00 | 0.00 | 0.00 | 54 | 1000.5 |
| 20260504234424 | 75 | 138 | 1.0 | 5.0 | 0.00 | 0.00 | 0.00 | 53 | 1000.6 |
| 20260504233921 | 75 | 96 | 0.0 | 2.0 | 0.00 | 0.00 | 0.00 | 54 | 1000.4 |
| 20260504233417 | 75 | 50 | 1.0 | 2.0 | 0.00 | 0.00 | 0.00 | 54 | 1000.4 |
| 20260504232913 | 76 | 126 | 0.0 | 2.0 | 0.00 | 0.00 | 0.00 | 54 | 1000.5 |
| 20260504232410 | 76 | 135 | 3.0 | 5.0 | 0.00 | 0.00 | 0.00 | 53 | 1000.7 |
| 20260504231908 | 76 | 183 | 2.0 | 3.0 | 0.00 | 0.00 | 0.00 | 54 | 1000.5 |
| 20260504231404 | 76 | 169 | 1.0 | 2.0 | 0.00 | 0.00 | 0.00 | 55 | 1000.7 |
| 20260504230900 | 76 | 104 | 3.0 | 3.0 | 0.00 | 0.00 | 0.00 | 54 | 1000.9 |
| 20260504230357 | 77 | 70 | 1.0 | 5.0 | 0.00 | 0.00 | 0.00 | 52 | 1000.6 |
| 20260504225856 | 77 | 142 | 3.0 | 3.0 | 0.00 | 0.00 | 0.00 | 54 | 1000.8 |
| 20260504225352 | 77 | 147 | 2.0 | 7.0 | 0.00 | 0.00 | 0.00 | 50 | 1000.8 |
| 20260504224850 | 77 | 112 | 1.0 | 3.0 | 0.00 | 0.00 | 0.00 | 54 | 1000.8 |
| 20260504224346 | 77 | 132 | 1.0 | 2.0 | 0.00 | 0.00 | 0.00 | 52 | 1000.8 |
| 20260504223843 | 78 | 142 | 1.0 | 3.0 | 0.00 | 0.00 | 0.00 | 52 | 1000.9 |
| 20260504223339 | 78 | 108 | 1.0 | 3.0 | 0.00 | 0.00 | 0.00 | 52 | 1000.6 |
| 20260504222835 | 78 | 157 | 1.0 | 2.0 | 0.00 | 0.00 | 0.00 | 53 | 1000.9 |
| 20260504222332 | 78 | 68 | 1.0 | 6.0 | 0.00 | 0.00 | 0.00 | 52 | 1000.8 |
| 20260504221831 | 78 | 227 | 3.0 | 5.0 | 0.00 | 0.00 | 0.00 | 48 | 1001.4 |
| 20260504221327 | 79 | 76 | 1.0 | 7.0 | 0.00 | 0.00 | 0.00 | 51 | 1001.0 |
| 20260504220824 | 79 | 91 | 0.0 | 1.0 | 0.00 | 0.00 | 0.00 | 51 | 1001.2 |
| 20260504220321 | 79 | 237 | 2.0 | 5.0 | 0.00 | 0.00 | 0.00 | 49 | 1001.0 |
| 20260504215819 | 79 | 114 | 2.0 | 3.0 | 0.00 | 0.00 | 0.00 | 50 | 1001.1 |
| 20260504215315 | 79 | 107 | 3.0 | 5.0 | 0.00 | 0.00 | 0.00 | 49 | 1001.3 |
| 20260504214811 | 79 | 266 | 9.0 | 10.0 | 0.00 | 0.00 | 0.00 | 47 | 1001.3 |
| 20260504214308 | 79 | 105 | 3.0 | 5.0 | 0.00 | 0.00 | 0.00 | 49 | 1001.3 |
| 20260504213804 | 79 | 249 | 2.0 | 3.0 | 0.00 | 0.00 | 0.00 | 50 | 1001.2 |
| 20260504213300 | 79 | 266 | 5.0 | 7.0 | 0.00 | 0.00 | 0.00 | 47 | 1001.6 |
| 20260504212758 | 79 | 207 | 1.0 | 6.0 | 0.00 | 0.00 | 0.00 | 51 | 1001.4 |
| 20260504212254 | 80 | 238 | 3.0 | 7.0 | 0.00 | 0.00 | 0.00 | 48 | 1001.6 |
| 20260504211752 | 79 | 132 | 1.0 | 5.0 | 0.00 | 0.00 | 0.00 | 49 | 1001.3 |
| 20260504211247 | 79 | 135 | 1.0 | 5.0 | 0.00 | 0.00 | 0.00 | 49 | 1001.5 |
| 20260504210745 | 79 | 128 | 3.0 | 5.0 | 0.00 | 0.00 | 0.00 | 49 | 1001.9 |
| 20260504210242 | 80 | 224 | 5.0 | 7.0 | 0.00 | 0.00 | 0.00 | 47 | 1001.8 |
| 20260504205739 | 80 | 233 | 1.0 | 5.0 | 0.00 | 0.00 | 0.00 | 47 | 1001.6 |
| 20260504205237 | 80 | 139 | 3.0 | 10.0 | 0.00 | 0.00 | 0.00 | 50 | 1001.5 |
| 20260504204735 | 79 | 133 | 3.0 | 3.0 | 0.00 | 0.00 | 0.00 | 50 | 1001.8 |
| 20260504204233 | 79 | 266 | 6.0 | 7.0 | 0.00 | 0.00 | 0.00 | 47 | 1001.5 |
| 20260504203732 | 79 | 166 | 4.0 | 6.0 | 0.00 | 0.00 | 0.00 | 47 | 1002.0 |
| 20260504203229 | 79 | 169 | 1.0 | 2.0 | 0.00 | 0.00 | 0.00 | 48 | 1002.1 |
| 20260504202729 | 80 | 131 | 2.0 | 3.0 | 0.00 | 0.00 | 0.00 | 51 | 1002.1 |
| 20260504202226 | 79 | 216 | 4.0 | 5.0 | 0.00 | 0.00 | 0.00 | 48 | 1002.1 |
| 20260504201724 | 79 | 293 | 2.0 | 6.0 | 0.00 | 0.00 | 0.00 | 48 | 1002.3 |
| 20260504201221 | 80 | 263 | 6.0 | 8.0 | 0.00 | 0.00 | 0.00 | 46 | 1002.4 |
| 20260504200718 | 80 | 111 | 1.0 | 2.0 | 0.00 | 0.00 | 0.00 | 48 | 1002.1 |
| 20260504200214 | 80 | 292 | 3.0 | 6.0 | 0.00 | 0.00 | 0.00 | 45 | 1002.5 |
| 20260504195711 | 80 | 189 | 4.0 | 6.0 | 0.00 | 0.00 | 0.00 | 46 | 1002.1 |
| 20260504195207 | 81 | 152 | 7.0 | 10.0 | 0.00 | 0.00 | 0.00 | 44 | 1002.2 |
| 20260504194704 | 81 | 127 | 2.0 | 5.0 | 0.00 | 0.00 | 0.00 | 47 | 1002.3 |
| 20260504194200 | 81 | 185 | 3.0 | 6.0 | 0.00 | 0.00 | 0.00 | 45 | 1002.4 |
| 20260504193656 | 81 | 96 | 1.0 | 2.0 | 0.00 | 0.00 | 0.00 | 47 | 1002.3 |
| 20260504193154 | 81 | 147 | 1.0 | 6.0 | 0.00 | 0.00 | 0.00 | 44 | 1002.6 |
| 20260504192652 | 82 | 243 | 3.0 | 7.0 | 0.00 | 0.00 | 0.00 | 44 | 1002.5 |
| 20260504192150 | 81 | 12 | 3.0 | 6.0 | 0.00 | 0.00 | 0.00 | 45 | 1002.7 |
| 20260504191648 | 82 | 253 | 4.0 | 5.0 | 0.00 | 0.00 | 0.00 | 46 | 1002.9 |
| 20260504191144 | 82 | 149 | 2.0 | 5.0 | 0.00 | 0.00 | 0.00 | 44 | 1002.7 |
| 20260504190640 | 81 | 121 | 0.0 | 2.0 | 0.00 | 0.00 | 0.00 | 47 | 1002.6 |
| 20260504190137 | 81 | 168 | 2.0 | 7.0 | 0.00 | 0.00 | 0.00 | 45 | 1002.7 |
| 20260504185633 | 81 | 83 | 2.0 | 6.0 | 0.00 | 0.00 | 0.00 | 45 | 1002.9 |
| 20260504185130 | 81 | 116 | 0.0 | 5.0 | 0.00 | 0.00 | 0.00 | 46 | 1002.7 |
| 20260504184626 | 81 | 36 | 1.0 | 5.0 | 0.00 | 0.00 | 0.00 | 46 | 1003.0 |
| 20260504184121 | 81 | 185 | 3.0 | 5.0 | 0.00 | 0.00 | 0.00 | 45 | 1002.9 |
| 20260504183618 | 81 | 205 | 2.0 | 3.0 | 0.00 | 0.00 | 0.00 | 45 | 1002.9 |
| 20260504183116 | 81 | 261 | 5.0 | 7.0 | 0.00 | 0.00 | 0.00 | 45 | 1003.0 |
| 20260504182614 | 82 | 258 | 3.0 | 6.0 | 0.00 | 0.00 | 0.00 | 44 | 1003.1 |
| 20260504182111 | 82 | 160 | 6.0 | 8.0 | 0.00 | 0.00 | 0.00 | 43 | 1003.2 |
| 20260504181608 | 82 | 94 | 2.0 | 3.0 | 0.00 | 0.00 | 0.00 | 47 | 1003.1 |
| 20260504181105 | 82 | 100 | 0.0 | 6.0 | 0.00 | 0.00 | 0.00 | 45 | 1003.0 |
| 20260504180604 | 82 | 311 | 1.0 | 5.0 | 0.00 | 0.00 | 0.00 | 46 | 1003.2 |
| 20260504180103 | 81 | 158 | 2.0 | 3.0 | 0.00 | 0.00 | 0.00 | 46 | 1003.2 |
| 20260504175600 | 81 | 127 | 2.0 | 5.0 | 0.00 | 0.00 | 0.00 | 50 | 1003.0 |
| 20260504175056 | 82 | 268 | 4.0 | 6.0 | 0.00 | 0.00 | 0.00 | 45 | 1002.9 |
| 20260504174555 | 81 | 122 | 1.0 | 2.0 | 0.00 | 0.00 | 0.00 | 50 | 1003.0 |
| 20260504174051 | 80 | 129 | 2.0 | 3.0 | 0.00 | 0.00 | 0.00 | 47 | 1003.1 |
| 20260504173548 | 80 | 57 | 1.0 | 5.0 | 0.00 | 0.00 | 0.00 | 48 | 1003.1 |
| 20260504173045 | 79 | 85 | 1.0 | 5.0 | 0.00 | 0.00 | 0.00 | 49 | 1003.2 |
| 20260504172541 | 79 | 151 | 3.0 | 8.0 | 0.00 | 0.00 | 0.00 | 48 | 1003.3 |
| 20260504172038 | 79 | 237 | 5.0 | 7.0 | 0.00 | 0.00 | 0.00 | 44 | 1003.3 |
| 20260504171535 | 80 | 197 | 4.0 | 6.0 | 0.00 | 0.00 | 0.00 | 45 | 1003.5 |
| 20260504171032 | 80 | 120 | 3.0 | 6.0 | 0.00 | 0.00 | 0.00 | 47 | 1003.4 |
| 20260504170528 | 79 | 257 | 5.0 | 8.0 | 0.00 | 0.00 | 0.00 | 46 | 1003.3 |
| 20260504150912 | 73 | 115 | 0.0 | 2.0 | 0.00 | 0.00 | 0.00 | 59 | 1004.3 |
| 20260504150409 | 73 | 111 | 1.0 | 5.0 | 0.00 | 0.00 | 0.00 | 56 | 1004.2 |
| 20260504140835 | 68 | 108 | 0.0 | 1.0 | 0.00 | 0.00 | 0.00 | 63 | 1004.9 |
| 20260504140330 | 67 | 66 | 0.0 | 1.0 | 0.00 | 0.00 | 0.00 | 67 | 1004.6 |
| 20260504130800 | 57 | 97 | 0.0 | 0.0 | 0.00 | 0.00 | 0.00 | 97 | 1005.0 |
| 20260504130256 | 57 | 94 | 0.0 | 0.0 | 0.00 | 0.00 | 0.00 | 99 | 1005.0 |
| 20260504120219 | 48 | 87 | 0.0 | 0.0 | 0.00 | 0.00 | 0.00 | 99 | 1005.0 |
| 20260504110647 | 47 | 87 | 0.0 | 0.0 | 0.00 | 0.00 | 0.00 | 99 | 1004.9 |
| 20260504110143 | 47 | 87 | 0.0 | 0.0 | 0.00 | 0.00 | 0.00 | 99 | 1005.0 |
| 20260504100609 | 47 | 70 | 0.0 | 0.0 | 0.00 | 0.00 | 0.00 | 99 | 1005.4 |
| 20260504100107 | 47 | 70 | 0.0 | 0.0 | 0.00 | 0.00 | 0.00 | 99 | 1005.3 |
| 20260504082003 | 48 | 70 | 0.0 | 0.0 | 0.00 | 0.00 | 0.00 | 99 | 1005.4 |
| 20260504081500 | 48 | 70 | 0.0 | 0.0 | 0.00 | 0.00 | 0.00 | 99 | 1005.3 |
| 20260504080955 | 48 | 70 | 0.0 | 0.0 | 0.00 | 0.00 | 0.00 | 99 | 1005.6 |
| 20260504080452 | 48 | 70 | 0.0 | 0.0 | 0.00 | 0.00 | 0.00 | 99 | 1005.5 |